This demonstration page uses our WeatherBlox Daily Observations layout. Learn more.

Hourly Observations for October 26, 2019

Temp ( °F °C ) Dew Point ( °F °C ) Humidity (%) Winds ( mph kmh ) Pressure ( in mb ) Visibility ( mi km ) Precip ( " mm )
12:15 am 00:15 Clear 39 3.9 26 -3.2 60 60 S 8 13 30.06 1018 10 16.0934 0 0
12:35 am 00:35 Clear 39 3.7 26 -3.1 61 61 S 8 13 30.06 1018 10 16.0934 0 0
12:55 am 00:55 Clear 38 3.5 26 -3.2 62 62 S 8 13 30.06 1018 10 16.0934 0 0
1:15 am 01:15 Clear 39 3.7 26 -3.3 61 61 S 9 15 30.06 1018 10 16.0934 0 0
1:35 am 01:35 Clear 39 3.7 26 -3.5 60 60 S 10 17 30.03 1017 10 16.0934 0 0
1:55 am 01:55 Clear 38 3.5 26 -3.6 60 60 S 10 17 30.03 1017 10 16.0934 0 0
2:15 am 02:15 Clear 38 3.3 25 -3.7 60 60 S 10 17 30.03 1017 10 16.0934 0 0
2:35 am 02:35 Clear 37 3 25 -3.8 61 61 S 10 17 30.03 1017 10 16.0934 0 0
2:55 am 02:55 Clear 38 3.2 25 -4 60 60 S 13 20 30 1016 10 16.0934 0 0
3:15 am 03:15 Clear 37 2.8 25 -4 61 61 S 12 19 30 1016 10 16.0934 0 0
3:35 am 03:35 Clear 36 2.2 25 -4 64 64 S 9 15 30 1016 10 16.0934 0 0
3:55 am 03:55 Clear 36 2.3 25 -4 63 63 S 10 17 30 1016 10 16.0934 0 0
4:15 am 04:15 Clear 36 2 25 -4 65 65 S 10 17 29.97 1015 10 16.0934 0 0
4:35 am 04:35 Clear 36 2.4 25 -4 63 63 S 13 20 29.97 1015 10 16.0934 0 0
4:55 am 04:55 Clear 37 2.6 25 -4.1 62 62 S 8 13 29.97 1015 10 16.0934 0 0
5:15 am 05:15 Clear 35 1.7 25 -4.1 66 66 S 9 15 29.94 1014 10 16.0934 0 0
5:35 am 05:35 Clear 33 0.8 25 -4.1 70 70 S 7 11 29.97 1015 10 16.0934 0 0
5:55 am 05:55 Clear 32 0.2 25 -4.1 73 73 S 7 11 29.97 1015 10 16.0934 0 0
6:15 am 06:15 Clear 32 0.1 25 -4 74 74 S 9 15 29.94 1014 10 16.0934 0 0
6:35 am 06:35 Clear 32 0 25 -4.1 74 74 S 7 11 29.94 1014 10 16.0934 0 0
6:55 am 06:55 Clear 32 0.1 25 -4 74 74 S 9 15 29.91 1013 10 16.0934 0 0
7:15 am 07:15 Clear 33 0.4 25 -4 73 73 S 8 13 29.91 1013 10 16.0934 0 0
7:35 am 07:35 Clear 33 0.5 25 -4 72 72 S 9 15 29.91 1013 10 16.0934 0 0
7:55 am 07:55 Clear 32 0 25 -4.1 74 74 S 9 15 29.88 1012 10 16.0934 0 0
8:15 am 08:15 Sunny 33 0.3 25 -4 73 73 S 8 13 29.88 1012 10 16.0934 0 0
8:35 am 08:35 Sunny 33 0.6 25 -3.8 73 73 S 8 13 29.88 1012 10 16.0934 0 0
8:55 am 08:55 Sunny 35 1.9 26 -3.5 68 68 S 9 15 29.85 1011 10 16.0934 0 0
9:15 am 09:15 Sunny 37 3 26 -3.3 64 64 S 10 17 29.85 1011 10 16.0934 0 0
9:35 am 09:35 Sunny 39 4.1 26 -3.2 59 59 S 9 15 29.83 1010 10 16.0934 0 0
9:55 am 09:55 Sunny 42 5.8 26 -3.1 53 53 SSW 13 20 29.83 1010 10 16.0934 0 0
10:15 am 10:15 Sunny 45 7.2 27 -2.7 50 50 SSW 10 17 29.8 1009 10 16.0934 0 0
10:35 am 10:35 Sunny 47 8.3 28 -2.5 47 47 SSW 14 22 29.8 1009 10 16.0934 0 0
10:55 am 10:55 Sunny 50 10.1 28 -2.4 42 42 SSW 12 19 29.8 1009 10 16.0934 0 0
11:15 am 11:15 Sunny 53 11.4 29 -1.9 40 40 SSW 13 20 29.74 1007 10 16.0934 0 0
11:35 am 11:35 Sunny 56 13.2 30 -1.2 37 37 SSW 12 19 29.74 1007 10 16.0934 0 0
11:55 am 11:55 Sunny 58 14.3 30 -1.1 35 35 SSW 12 19 29.71 1006 10 16.0934 0 0
12:15 pm 12:15 Sunny 60 15.8 31 -0.6 33 33 SW 14 22 29.68 1005 10 16.0934 0 0
12:35 pm 12:35 Sunny 63 17.3 32 -0.1 31 31 SW 13 20 29.65 1004 10 16.0934 0 0
12:55 pm 12:55 Sunny 65 18.2 32 -0.1 29 29 SSW 16 26 29.62 1003 10 16.0934 0 0
1:15 pm 13:15 Sunny 67 19.3 32 -0.2 27 27 SSW 16 26 29.62 1003 10 16.0934 0 0
1:35 pm 13:35 Sunny 68 20.1 31 -0.3 26 26 SSW 16 26 29.56 1001 10 16.0934 0 0
1:55 pm 13:55 Sunny 69 20.5 31 -0.6 24 24 SSW 16 26 29.56 1001 10 16.0934 0 0
2:15 pm 14:15 Sunny 70 21 31 -0.7 23 23 SSW 16 26 29.56 1001 10 16.0934 0 0
2:35 pm 14:35 Sunny 71 21.6 31 -0.8 22 22 SSW 15 24 29.53 1000 10 16.0934 0 0
2:55 pm 14:55 Sunny 72 22 31 -0.6 22 22 SSW 21 33 29.53 1000 10 16.0934 0 0
3:15 pm 15:15 Sunny 71 21.9 31 -0.8 22 22 SSW 15 24 29.53 1000 10 16.0934 0 0
3:35 pm 15:35 Sunny 72 22.4 31 -0.6 22 22 SSW 17 28 29.53 1000 10 16.0934 0 0
3:55 pm 15:55 Sunny 73 22.6 31 -0.4 22 22 SSW 14 22 29.53 1000 10 16.0934 0 0
4:15 pm 16:15 Sunny 73 22.8 31 -0.4 21 21 SW 10 17 29.53 1000 10 16.0934 0 0
4:35 pm 16:35 Sunny 73 22.7 31 -0.4 22 22 SSW 10 17 29.53 1000 10 16.0934 0 0
4:55 pm 16:55 Sunny 73 22.6 31 -0.5 22 22 SSW 14 22 29.53 1000 10 16.0934 0 0
5:15 pm 17:15 Sunny 72 22.4 31 -0.7 22 22 S 10 17 29.53 1000 10 16.0934 0 0
5:35 pm 17:35 Sunny 72 22 31 -0.7 22 22 S 10 17 29.53 1000 10 16.0934 0 0
5:55 pm 17:55 Sunny 70 21.2 30 -0.9 23 23 S 9 15 29.53 1000 10 16.0934 0 0
6:15 pm 18:15 Sunny 68 20.1 31 -0.6 25 25 S 5 7 29.53 1000 10 16.0934 0 0
6:35 pm 18:35 Sunny 64 17.8 31 -0.7 29 29 N 14 22 29.59 1002 10 16.0934 0 0
6:55 pm 18:55 Clear 60 15.5 39 3.8 46 46 N 21 33 29.65 1004 7 11.26538 0 0
7:15 pm 19:15 Clear 58 14.4 39 4.1 50 50 N 18 30 29.68 1005 10 16.0934 0 0
7:35 pm 19:35 Clear 55 13 40 4.2 55 55 N 12 19 29.71 1006 10 16.0934 0 0
7:55 pm 19:55 Clear 55 13 40 4.2 55 55 N 18 30 29.71 1006 10 16.0934 0 0
8:15 pm 20:15 Clear 52 11.3 39 4 61 61 NNE 14 22 29.71 1006 10 16.0934 0 0
8:35 pm 20:35 Clear 51 10.8 39 4 63 63 N 10 17 29.71 1006 10 16.0934 0 0
8:55 pm 20:55 Clear 50 10 38 3.1 63 63 N 21 33 29.77 1008 10 16.0934 0 0
9:15 pm 21:15 Clear 48 9.1 37 2.6 64 64 N 21 33 29.77 1008 10 16.0934 0 0
9:35 pm 21:35 Clear 47 8.5 36 2.3 65 65 N 14 22 29.8 1009 10 16.0934 0 0
9:55 pm 21:55 Clear 45 7 36 2 71 71 N 14 22 29.83 1010 10 16.0934 0 0
10:15 pm 22:15 Clear 45 7.1 35 1.8 69 69 N 16 26 29.83 1010 10 16.0934 0 0
10:35 pm 22:35 Clear 45 7 35 1.6 69 69 N 16 26 29.83 1010 10 16.0934 0 0
10:55 pm 22:55 Clear 43 6.3 35 1.5 72 72 N 14 22 29.83 1010 10 16.0934 0 0
11:15 pm 23:15 Clear 43 6 34 1.2 72 72 N 14 22 29.83 1010 10 16.0934 0 0
11:35 pm 23:35 Clear 42 5.8 34 1.1 72 72 N 14 22 29.83 1010 10 16.0934 0 0
11:55 pm 23:55 Clear 42 5.5 34 1 73 73 N 10 17 29.85 1011 10 16.0934 0 0

Powered by AerisWeather